Погода в Мишкином-Ёли

Россия / Республика Коми     62°37′05″N   56°50′05″E
темп.,
°C
ветер,
м/с
пор.,
м/с
влажн.,
%
обл.,
%
осадки,
мм/ч
давл.,
гПа
погр.,
м
15 мая, сб
сб1500:00+16ю2382100 0.5 101456
03:00+15ююз2391100 2.8 101466
06:00+18юз24765 0.0 1013448
09:00+21зюз3553100 0.0 10131059
12:00+24з473392 0.0 10132935
15:00+22з464224 0.0 10131948
18:00+20зюз3748100 0.0 1012296
21:00+18зюз3957100 0.0 1012422
16 мая, вс
вс1600:00+16сз266522 0.0 1013210
03:00+12с1186100 0.0 101411
06:00+16вюв126678 0.0 1014314
09:00+20ю3551100 0.0 1013986
12:00+22ююз375899 0.5 10111276
15:00+23зюз284859 1.0 1009386
18:00+19ююз597249 0.6 1008232
21:00+18ююз4126810 0.6 1008333
17 мая, пн
пн1700:00+15з227898 0.3 100928
03:00+13ююз39910 0.8 1010213
06:00+17зюз497234 0.3 1010638
09:00+21зюз595054 0.3 10101637
12:00+21зюз584892 0.0 10102196
15:00+20з58567 0.2 10121336
18:00+18з486599 1.3 1012640
21:00+14з128680 1.9 101313
18 мая, вт
вт1800:00+13зюз23905 0.3 101358
03:00+12з269270 0.6 1014144
06:00+15сз257787 0.0 1015385
09:00+16с346899 0.2 1016566
12:00+19ссв225483 0.1 10171353
15:00+19ссв225451 0.3 10181227
18:00+18св226031 0.0 1018623
21:00+13в238618 0.0 102060
19 мая, ср
ср1900:00+11юв2688100 0.0 1020139
03:00+10вюв269231 0.0 1021136
06:00+16ююв346993 0.0 1020373
09:00+21ю354889 0.0 1019839
12:00+25ююз463758 0.0 10171488
15:00+27ююз4834100 0.0 10152532
18:00+23ююв395124 0.0 1014330
21:00+18ю3126896 0.0 1014254